Free Severe Weather Alerts by Email and Text Message   

 
Follow iAlert.com on twitter @ialertcom
Search For Active Alerts in Your Area  
  Hi Guest:  [ Sign-up / Services ] [ Login ]

Current weather by "City, St" or "zip code"  

 

Advertise Here

Hazardous Weather Conditions

No active alerts for PHOENIX, ARIZONA

Current Conditions: PHOENIX, ARIZONA

Fair


74.0 F

Last Updated on Apr 27 2017, 10:53 pm MST
Humidity: 21%
Wind Speed: S 4.6 mph
Barometer 29.59 in
Dewpoint: 32.0 F
Visibility: 10.00 mi
Precip: --
Heat Index: NA
Wind Chill: NA
Current conditions at:

Phoenix, Phoenix-Deer Valley Municipal Airport, AZ (KDVT)

Lat: 33.69 Lon: -112.06

Local Radar Image active severe weather and emergency alerts image image weather storm and storm spotter reports image weather observation monitoring service image
Local
Radar
Active
Alerts
Storm Reports Weather
Monitoring

Weather Alert Notification Services


ialert severe weather and emergency alerts by text message and email ialert daily weather forecast by email and text message service ialert real-time weather-observation monitoring and alert notification service ialert storm report monitoring alert notification

Observation History for PHOENIX, ARIZONA


Time Wind
(mph)
Vis
(mi)
Weather Precip (in) Temperature (F) Relative
Humidity
Wind
Chill
(°F)
Heat
Index
(°F)
Pressure
Air Dwpt altimeter
(in)
sea level
(mb)
10:53 pm MST S 4.6 10.00 Fair -- 74.0 32.0 21% NA NA 29.59 999.8
9:53 pm MST S 3.5 10.00 Fair -- 76.0 28.9 18% NA NA 29.59 999.8
8:53 pm MST N 0.0 10.00 Fair -- 80.0 26.1 14% NA 78 29.58 999.6
7:53 pm MST W 9.2 10.00 Fair -- 82.0 28.0 14% NA 80 29.58 999.5
6:53 pm MST NW 11.5 G 18.4 10.00 Fair -- 86.0 30.0 13% NA 83 29.56 999.0
5:53 pm MST SW 15.0 10.00 Fair -- 86.0 39.0 19% NA 83 29.56 998.8
4:53 pm MST S 15.0 10.00 Fair -- 87.0 37.9 18% NA 84 29.56 998.9
3:53 pm MST SW 15.0 10.00 Fair -- 86.0 39.0 19% NA 83 29.58 999.3
2:53 pm MST SW 11.5 G 18.4 10.00 Fair -- 85.0 39.0 20% NA 82 29.61 1000.4
1:53 pm MST S 12.7 10.00 Fair -- 86.0 37.9 18% NA 83 29.63 1001.2
12:53 pm MST SW 11.5 G 19.6 10.00 Fair -- 83.0 37.0 19% NA 81 29.66 1001.9
11:53 am MST S 10.4 10.00 Fair -- 82.0 35.1 18% NA 80 29.68 1002.7
10:53 am MST SW 6.9 10.00 Fair -- 79.0 32.0 18% NA NA 29.70 1003.6
9:53 am MST SW 4.6 10.00 Fair -- 77.0 30.9 18% NA NA 29.71 1003.7
8:53 am MST N 0.0 10.00 Fair -- 74.0 28.0 18% NA NA 29.71 1003.8
7:53 am MST E 4.6 10.00 Fair -- 71.0 30.0 22% NA NA 29.70 1003.6
6:53 am MST N 0.0 10.00 Fair -- 65.0 30.9 28% NA NA 29.69 1003.3
5:53 am MST 3.5 10.00 Fair -- 65.0 30.0 27% NA NA 29.67 1002.5
4:53 am MST N 0.0 10.00 Fair -- 64.0 30.0 28% NA NA 29.67 1002.6
3:53 am MST N 0.0 10.00 Fair -- 69.0 30.0 23% NA NA 29.68 1002.9
2:53 am MST W 3.5 10.00 Fair -- 70.0 32.0 25% NA NA 29.68 1002.7
1:53 am MST W 6.9 10.00 Fair -- 72.0 30.9 22% NA NA 29.68 1003.0
12:53 am MST SW 18.4 G 24.2 10.00 Fair -- 74.0 30.9 20% NA NA 29.70 1003.3
11:53 pm MST W 15.0 10.00 Fair -- 75.0 30.0 19% NA NA 29.70 1003.3

Regional Weather Observation:


Glendale, Glendale Municipal Airport, AZ (KGEU)

Mostly Cloudy
86.0 F

Luke Air Force Base / Phoenix, AZ (KLUF)

Fair
79.0 F

Phoenix, Phoenix Sky Harbor International Airport, AZ (KPHX)

Mostly Cloudy
80.0 F

Goodyear Municipal, AZ (KGYR)

Partly Cloudy
81.0 F

Buckeye Municipal Airport, AZ (KBXK)

Fair
73.0 F

Scottsdale Airport, AZ (KSDL)

Fair
79.0 F

Advertise Here


Advertise Here